GFSSGP_prec_cthk_102.txt.gz
RH
18 17 15 14 15 17 17 14 13 11 10 12 12 14 16 18 22 23 19 20 21 19 23 25 25 25 24 24 23 20 20 19 16 15 16 19 21 23 24 24 26 29 33 35 33 36 42 44 51
20 18 18 18 16 18 13 15 14 12 10 12 13 15 17 17 21 20 21 22 22 21 22 25 27 28 28 24 22 21 22 21 19 16 17 18 20 23 24 25 25 29 33 35 36 39 42 48 54
21 19 19 21 23 19 15 14 13 11 12 12 15 15 15 17 22 19 20 20 20 20 21 24 27 28 27 25 23 24 25 24 21 18 18 19 21 23 25 26 27 32 35 37 39 42 43 49 58
23 21 22 24 24 22 19 17 15 13 13 14 16 17 16 15 20 23 21 20 21 21 22 23 25 27 26 25 24 23 23 22 21 21 21 21 23 24 26 27 29 32 36 39 41 42 45 52 58
23 24 27 29 27 23 23 19 17 17 16 16 18 17 16 15 16 22 23 20 20 20 22 24 23 23 25 23 22 22 23 23 23 23 23 23 24 25 27 28 30 33 35 41 44 46 49 53 55
24 27 32 31 26 24 24 22 20 18 17 17 20 19 17 18 21 22 25 25 25 23 22 21 22 23 22 21 20 20 22 23 23 25 25 24 25 26 27 28 29 31 35 39 47 49 53 53 54
25 29 32 31 29 26 26 25 25 24 21 20 21 20 19 21 28 27 28 30 29 24 24 25 23 21 19 18 18 19 20 21 23 25 25 25 26 27 26 28 28 31 34 37 44 50 52 53 53
25 28 32 32 30 28 28 28 29 27 25 24 23 22 22 23 28 35 37 31 27 25 25 25 22 22 20 20 19 18 19 20 23 25 25 25 26 27 27 27 28 30 32 37 43 48 50 54 57
27 31 36 30 30 28 28 29 30 30 29 26 26 25 24 23 28 42 42 37 30 28 28 28 25 24 24 23 21 20 21 22 22 24 24 26 26 27 27 26 28 30 33 37 44 50 55 57 61
30 37 31 28 27 27 28 29 29 29 29 27 25 27 25 26 25 42 48 44 36 34 33 32 30 28 29 28 25 23 23 23 24 24 24 25 26 27 27 27 29 31 34 38 44 55 57 67 68
27 31 29 29 29 28 26 27 28 28 29 28 27 28 27 27 27 31 47 53 49 44 42 41 41 37 34 31 30 28 26 25 26 26 26 26 27 28 28 28 29 31 33 37 44 48 54 60 66
29 27 26 26 27 27 25 24 26 26 27 28 28 28 29 29 28 28 37 57 67 53 52 50 43 43 38 34 34 31 30 28 27 28 27 27 28 28 27 28 28 30 32 37 42 47 52 60 69
29 28 27 26 27 28 27 27 25 25 26 27 29 30 30 31 31 30 30 40 53 67 72 53 51 47 43 40 39 35 33 32 30 30 29 28 30 30 28 28 29 31 33 36 42 46 52 59 73
34 33 32 31 29 28 28 28 29 27 27 27 28 29 31 32 33 32 32 33 34 34 40 72 63 56 50 46 43 42 38 36 31 31 30 30 31 32 32 28 30 32 33 35 42 47 52 65 79
37 38 36 33 31 30 30 29 28 27 27 27 27 28 29 31 32 33 32 31 31 30 31 33 40 45 53 50 48 48 42 40 41 37 38 33 34 35 34 29 32 35 35 36 42 47 54 68 79
38 39 40 36 34 34 33 33 30 30 28 26 26 26 27 28 28 30 32 32 32 31 32 33 34 33 39 48 52 51 45 41 41 47 44 37 36 38 38 32 34 37 38 37 42 45 51 63 74
42 44 42 39 36 36 34 32 30 28 28 28 27 27 27 27 29 30 31 32 34 35 37 36 35 32 33 35 44 54 57 52 47 57 49 38 37 41 40 35 37 39 41 37 39 42 47 54 70
45 46 44 42 35 32 29 28 28 29 30 29 29 28 27 26 27 29 28 29 29 31 33 36 35 33 36 36 38 52 57 52 46 48 62 48 39 44 42 39 41 42 44 40 37 40 43 48 60
39 39 39 35 31 32 30 29 29 29 29 28 26 24 22 22 22 23 22 24 26 27 28 30 30 31 34 35 39 43 52 47 44 45 62 63 45 45 45 43 45 43 46 44 39 40 42 49 56
39 37 38 37 36 36 32 27 27 26 23 23 21 19 19 19 20 20 20 21 24 24 25 27 28 30 30 32 33 33 38 43 39 43 56 71 61 47 50 48 47 45 49 47 42 39 39 46 51
37 38 37 37 33 31 29 24 21 20 19 20 21 25 30 32 34 32 29 28 26 26 27 28 29 29 32 34 35 36 37 44 44 44 52 61 65 61 61 55 50 49 50 50 48 39 39 44 46
39 34 35 36 37 39 32 35 23 20 20 20 31 36 38 39 41 42 42 39 37 35 31 28 31 31 32 37 34 35 35 34 39 40 44 49 59 75 73 63 53 53 50 51 51 38 39 46 46
33 30 30 32 37 37 38 40 23 20 21 36 39 39 39 41 42 45 44 45 44 44 42 40 36 35 36 40 37 36 35 33 35 32 41 52 60 77 74 68 56 54 50 53 55 40 38 45 50
30 30 31 33 37 44 36 41 24 23 36 38 41 43 44 43 45 48 49 50 52 50 54 52 49 47 42 48 39 34 33 35 38 32 37 50 64 73 73 63 55 52 52 55 58 42 40 46 56
38 42 47 48 54 43 38 44 27 35 38 43 45 48 49 49 47 49 55 60 60 63 70 67 62 56 49 45 38 30 33 39 45 39 39 51 63 70 67 55 55 52 53 56 57 42 44 50 55
39 40 51 57 57 50 39 41 35 42 42 44 48 55 61 62 60 63 67 73 76 80 85 76 70 70 59 50 46 44 45 43 46 40 43 58 69 69 63 56 58 54 58 60 57 42 49 51 54
34 46 46 58 53 60 45 40 46 50 53 55 58 62 65 65 71 78 82 87 85 87 87 81 77 75 66 67 60 51 54 53 53 47 56 69 80 72 64 63 57 58 59 61 49 48 52 52 55
28 28 43 58 66 64 43 49 53 64 66 64 66 66 69 75 86 91 91 95 94 90 87 85 80 77 75 73 71 64 56 65 63 56 58 65 73 77 67 67 59 56 59 60 50 49 52 53 56
23 24 29 50 57 68 65 65 74 75 75 73 73 75 79 93 93 91 93 96 95 91 88 84 83 86 86 79 73 70 69 67 63 64 67 72 78 80 76 72 63 59 57 58 50 50 53 55 58
28 41 45 53 51 62 68 55 59 70 69 78 84 89 95 95 92 92 91 92 90 86 79 82 87 88 82 84 78 79 80 72 76 80 72 81 80 83 82 75 66 62 63 57 51 51 53 54 58

GFSSGP_prec_cthk_105.txt.gz
RH
18 18 17 16 15 15 13 11 13 12 12 12 12 12 13 15 16 20 18 19 22 20 20 23 24 24 26 26 25 25 23 22 24 23 21 20 20 21 22 23 23 25 27 31 31 33 35 38 43
20 19 18 18 15 14 14 15 13 11 11 11 13 13 14 16 18 18 18 21 24 23 23 23 24 25 27 28 27 25 23 23 24 22 20 19 20 21 22 23 24 25 28 30 30 33 36 40 46
23 21 20 20 17 15 15 15 15 13 13 13 13 14 15 15 16 21 24 23 23 21 21 23 26 27 29 30 27 25 24 23 23 23 22 21 21 22 23 24 25 25 29 31 32 34 38 40 47
24 23 23 21 18 18 17 18 17 15 14 14 15 15 16 16 16 23 27 22 23 21 21 24 26 28 29 28 27 26 23 23 23 24 24 23 23 24 24 25 26 27 29 34 33 37 38 42 50
24 23 24 23 22 21 21 20 19 17 16 16 18 17 17 18 18 18 25 24 21 21 22 24 26 27 26 27 25 24 23 23 24 25 25 25 25 25 25 26 28 28 29 34 35 37 40 44 51
25 26 25 23 22 23 22 22 21 21 19 18 18 18 18 19 19 21 25 28 24 24 24 25 27 27 27 26 24 22 22 22 23 25 26 27 27 27 27 29 29 29 29 35 36 40 42 47 50
27 28 26 26 24 24 24 24 24 24 24 22 21 20 18 19 20 24 29 32 30 28 26 26 27 29 26 24 22 24 23 23 22 24 27 28 27 28 29 30 30 31 31 37 42 41 43 47 51
28 28 30 28 26 25 25 25 26 26 26 25 24 23 22 21 21 24 32 37 37 35 31 29 29 28 25 24 25 25 23 24 25 25 27 28 28 28 29 31 29 31 31 34 39 42 44 47 49
29 29 29 28 29 26 27 26 27 27 28 28 27 25 24 22 22 25 33 43 44 42 35 32 32 29 29 28 27 28 27 25 25 27 27 28 28 28 29 29 30 30 32 35 38 43 44 48 53
31 30 28 28 27 26 26 27 27 27 26 26 27 26 25 25 24 25 30 46 48 46 39 39 38 39 34 32 31 30 29 27 27 27 27 28 27 28 29 31 31 31 32 36 45 50 50 51 54
32 31 31 29 28 28 27 27 28 27 26 25 26 26 26 27 26 26 31 42 46 49 43 43 42 41 39 38 37 35 30 29 28 29 29 28 28 30 31 31 31 32 33 35 42 49 46 49 54
33 33 31 30 29 28 28 27 27 26 25 24 24 25 26 26 27 27 29 37 50 61 53 51 51 45 46 43 43 39 36 31 30 30 31 31 30 30 29 29 30 31 32 34 40 45 48 52 55
34 33 32 31 30 30 29 28 28 28 26 25 25 26 26 27 28 28 28 32 37 43 54 58 54 51 49 42 50 43 41 36 34 32 30 31 33 31 29 28 31 32 32 34 37 43 46 50 55
39 38 37 36 35 34 32 30 30 28 27 28 28 26 26 26 28 29 30 29 31 37 44 51 52 60 60 58 51 49 47 44 39 37 33 30 32 34 30 29 33 33 32 34 36 39 46 51 58
40 40 39 37 35 34 33 33 32 29 29 28 27 26 26 26 27 28 30 31 30 32 39 40 43 54 54 57 68 57 53 49 46 45 41 37 36 36 34 37 34 33 33 36 39 38 44 50 53
38 37 37 37 36 36 36 34 34 33 31 29 28 27 27 27 27 28 29 29 31 30 31 32 31 32 34 44 54 54 56 53 48 48 50 44 41 38 39 42 37 34 33 37 39 35 41 48 55
41 38 39 37 36 37 37 36 34 32 31 30 29 28 28 27 28 27 27 29 31 31 32 32 32 31 32 35 39 46 52 59 54 53 54 51 46 43 42 44 40 36 34 38 41 35 37 44 48
39 39 40 41 37 36 33 31 30 30 30 29 29 29 29 29 30 29 28 28 29 29 30 31 32 33 34 34 34 35 42 49 59 59 55 60 54 50 50 45 41 40 36 39 43 38 35 41 49
37 38 36 35 33 35 34 33 32 32 31 30 29 28 28 27 29 30 30 31 31 30 29 29 30 31 31 32 32 33 35 40 48 56 55 57 57 58 53 47 46 42 38 41 43 43 37 39 48
38 37 36 34 35 35 33 30 29 27 25 25 25 25 29 27 25 26 28 29 29 28 27 28 27 27 28 29 29 30 33 37 38 50 56 54 54 62 63 50 46 44 42 45 46 45 45 39 45
39 39 38 38 34 34 33 26 23 21 20 25 29 30 29 31 32 31 30 29 29 27 27 27 27 26 26 27 29 34 38 41 42 44 48 52 51 53 70 61 48 47 49 48 49 47 51 43 44
41 37 36 38 41 37 32 31 25 21 22 26 29 33 36 36 37 34 34 36 35 34 32 30 27 26 25 25 28 35 38 40 39 36 38 43 46 49 60 71 60 52 56 53 53 50 54 52 44
40 40 39 39 38 38 34 31 25 26 23 31 36 38 39 39 39 38 37 36 36 36 36 36 34 32 28 27 26 34 38 41 40 41 39 41 44 47 57 69 74 68 61 58 57 52 53 58 45
38 38 37 36 38 43 31 29 23 27 30 37 41 42 41 43 44 43 41 38 39 40 40 40 39 39 38 33 30 30 37 44 46 43 40 39 38 48 53 63 61 81 72 68 59 54 54 61 47
43 42 40 40 47 39 38 39 26 34 42 46 48 47 50 49 47 45 43 43 46 47 47 45 46 45 49 43 41 32 39 47 48 47 47 41 35 41 48 61 58 70 71 69 61 54 54 63 50
41 42 44 51 51 50 50 44 33 50 49 50 52 52 52 53 51 50 50 51 57 63 61 59 64 61 63 59 51 46 44 57 52 52 57 49 40 33 43 60 65 73 72 67 61 54 53 64 48
50 53 50 55 55 50 37 35 44 48 48 50 52 51 53 57 58 57 60 64 70 81 80 73 77 84 80 77 66 56 53 53 53 50 55 56 50 46 50 66 71 79 72 68 64 55 55 60 45
42 32 38 52 47 38 26 34 36 51 52 54 54 56 57 60 62 64 70 78 85 94 94 92 93 90 84 77 71 66 62 62 57 56 53 58 58 54 60 67 75 77 74 70 62 56 59 60 47
26 25 29 34 45 38 29 30 55 60 62 59 57 56 56 66 74 76 79 90 91 98 98 98 95 90 85 80 79 75 75 69 69 68 66 62 63 59 59 72 79 77 76 75 65 59 57 57 52
27 32 34 32 32 44 46 32 52 50 51 51 53 59 60 69 88 86 90 94 95 97 98 98 95 90 89 84 80 81 85 85 75 71 73 72 68 66 69 74 79 78 83 78 68 59 59 54 50

GFSSGP_prec_cthk_108.txt.gz
RH
17 17 17 18 16 13 13 11 11 11 11 12 12 11 11 12 14 19 22 20 20 21 19 21 21 24 25 27 27 26 27 26 25 25 27 28 28 27 25 24 23 24 26 29 31 31 33 34 36
21 19 19 18 16 14 14 14 13 11 11 11 12 13 13 15 16 18 25 24 23 24 22 22 23 23 25 26 27 26 25 25 24 24 27 28 28 26 25 25 24 25 28 31 31 30 32 35 40
23 22 22 20 16 16 16 15 14 14 13 12 13 12 14 16 18 21 26 27 27 29 23 21 21 24 26 27 26 27 25 23 23 24 26 27 27 25 26 26 26 27 29 32 31 33 33 37 40
24 23 23 21 18 17 17 17 17 16 15 14 14 14 15 16 19 19 24 24 29 32 25 21 23 25 27 27 26 26 24 23 24 22 24 26 26 27 27 27 27 28 29 33 32 33 37 38 42
25 24 23 21 19 19 20 20 20 19 18 16 16 16 17 17 18 20 21 23 30 31 26 22 24 27 28 27 28 24 23 24 24 24 24 25 25 27 28 28 29 30 31 32 34 36 39 41 45
27 27 25 23 21 21 22 23 22 21 21 20 18 18 18 17 18 20 22 28 29 29 29 25 27 29 29 28 28 25 25 25 25 25 27 27 27 27 29 29 31 33 36 34 36 37 42 45 45
28 28 27 25 23 23 23 24 23 23 24 23 23 21 21 19 18 21 21 28 30 27 28 31 30 31 32 31 28 26 26 27 27 26 26 28 30 28 28 29 31 32 33 36 40 45 41 44 46
29 29 26 26 25 24 25 25 24 25 25 27 26 24 24 23 20 22 27 30 33 30 28 31 32 33 34 33 29 27 28 29 29 28 28 29 29 29 29 29 32 37 35 36 38 39 40 44 47
31 30 27 26 27 27 27 26 27 26 26 27 27 26 25 25 23 24 28 35 38 37 34 34 32 35 37 33 30 30 32 32 32 32 30 31 33 32 31 30 31 32 34 35 37 40 39 45 50
32 29 28 28 29 28 26 26 26 27 26 26 26 26 25 25 25 25 27 34 42 45 40 40 36 37 39 36 35 34 35 34 33 34 34 32 33 36 37 35 32 33 34 34 38 42 44 47 53
34 32 32 30 31 29 28 27 27 27 26 27 26 26 25 24 26 26 27 31 44 50 47 45 39 39 43 42 39 36 36 39 38 34 35 37 36 36 37 41 38 37 35 35 36 37 41 51 50
37 35 34 34 33 32 32 31 29 27 26 27 25 26 26 25 25 25 27 28 39 56 54 52 42 43 45 46 42 40 43 38 37 35 36 36 39 40 38 41 44 41 40 36 37 40 41 44 51
39 37 35 35 33 33 32 31 30 27 28 28 28 27 26 27 26 26 26 27 30 44 54 61 52 45 46 44 45 43 44 42 39 38 41 40 35 36 40 44 44 42 41 40 37 38 39 44 50
34 36 37 39 38 38 37 34 33 32 31 29 29 29 28 27 27 27 28 28 29 37 39 48 58 53 51 50 47 48 47 53 44 41 45 43 46 37 34 41 40 40 42 41 41 38 39 41 50
35 34 34 35 38 36 36 34 34 33 31 32 31 30 29 28 28 27 28 29 30 30 35 40 46 53 53 59 54 55 52 55 54 51 45 46 45 47 37 36 37 40 44 44 39 40 39 38 47
32 32 34 34 36 37 36 32 32 33 32 32 31 31 30 30 29 28 27 28 29 31 31 32 40 45 49 57 61 61 60 57 61 52 51 49 47 50 43 38 37 40 45 45 36 37 38 34 37
33 29 30 33 34 34 35 33 32 33 33 32 31 32 32 32 31 30 30 30 29 29 31 33 32 38 45 50 58 57 58 58 59 56 50 47 50 50 52 45 41 40 43 46 39 35 38 33 33
33 29 31 33 34 35 32 31 29 30 30 30 30 30 32 32 32 35 34 33 31 31 28 30 33 35 34 38 44 45 44 49 53 52 51 50 49 52 57 54 47 44 45 47 43 36 38 37 34
29 29 30 31 34 31 31 31 32 31 30 29 29 30 32 35 38 37 34 34 35 34 32 30 30 31 32 34 40 41 38 36 43 44 46 53 50 50 55 65 57 49 49 50 48 39 39 41 39
31 32 32 34 36 36 34 31 29 28 28 28 28 29 35 33 33 34 34 34 35 35 35 33 32 31 32 34 33 42 43 41 41 44 44 42 50 51 54 61 65 56 51 51 52 41 41 42 43
38 38 36 37 36 35 33 28 26 25 24 25 30 33 32 32 32 32 32 31 31 32 32 32 32 31 29 28 28 29 38 41 40 36 38 33 38 46 51 55 62 63 54 51 51 45 43 43 45
39 39 40 37 36 35 35 28 27 27 26 30 34 36 35 36 36 33 30 30 29 29 30 30 30 30 31 30 29 30 34 37 36 34 34 31 33 40 47 52 55 65 62 55 52 49 52 48 45
42 40 40 38 38 40 36 35 24 29 28 33 40 40 38 39 36 36 35 33 32 31 30 30 29 29 30 31 30 29 28 33 38 37 36 38 35 36 42 48 55 58 69 66 56 52 58 57 48
46 45 43 42 45 45 34 31 21 32 34 43 45 41 42 40 41 43 40 36 34 33 32 30 30 31 32 32 34 34 31 29 39 38 39 40 41 40 43 48 53 53 67 77 68 60 62 61 52
51 51 52 50 51 36 37 32 26 40 47 48 48 44 42 42 43 41 38 36 34 35 36 35 36 38 38 36 39 39 35 35 31 41 42 49 43 41 43 47 47 53 62 76 83 78 68 66 58
53 57 54 49 41 42 47 39 44 56 57 55 49 48 47 45 45 43 41 40 40 41 42 44 47 51 51 45 41 46 46 41 35 35 45 52 49 41 44 47 48 50 60 73 74 83 79 72 61
53 52 53 55 49 53 41 43 56 58 59 56 51 47 45 46 47 49 48 47 46 48 53 56 61 68 67 60 54 56 57 55 43 44 50 57 55 49 47 49 52 56 62 67 72 83 84 70 64
56 56 59 60 58 43 29 28 35 63 63 55 52 46 46 46 44 43 46 53 55 59 64 73 81 87 82 72 72 74 75 73 59 58 55 62 65 61 52 52 58 60 66 71 78 88 81 82 65
52 48 49 51 48 39 29 23 54 60 56 51 46 43 42 41 42 46 52 57 61 68 79 85 91 95 94 90 90 88 87 84 78 71 62 66 68 62 58 60 63 61 56 77 87 89 83 82 70
43 37 28 32 27 34 33 31 53 50 40 35 33 34 34 36 41 52 61 62 73 78 89 93 95 97 98 98 95 91 87 86 95 84 74 68 63 58 61 63 68 66 62 75 88 87 86 82 70

GFSSGP_prec_cthk_114.txt.gz
RH
21 20 20 20 19 17 15 13 16 15 12 11 11 10 11 11 15 31 44 36 32 23 19 20 18 18 20 23 24 25 24 24 23 24 25 26 29 30 26 23 21 21 23 25 27 28 30 31 31
22 24 22 21 21 18 19 18 17 17 14 12 12 10 10 12 13 20 26 27 31 26 22 21 19 21 21 23 24 24 25 24 24 24 26 28 31 29 26 24 22 23 25 27 28 29 29 29 32
24 24 24 22 20 18 20 21 20 19 16 15 13 13 13 15 17 18 19 21 23 29 24 23 21 23 23 24 25 24 25 24 24 24 26 28 30 29 27 25 23 25 27 28 30 29 29 31 33
27 26 25 23 20 19 22 25 25 18 17 17 15 15 15 15 17 18 19 23 26 31 27 24 23 24 24 25 26 25 25 23 22 23 25 27 29 28 26 25 24 26 27 30 31 30 31 33 35
29 29 28 24 21 20 21 22 25 19 18 18 17 17 17 18 19 20 18 24 27 31 30 30 24 25 24 26 27 26 26 23 22 24 25 26 27 28 28 28 27 26 27 28 30 32 32 33 34
31 30 30 28 23 23 27 29 28 22 21 20 20 19 19 23 20 21 19 21 27 32 32 33 28 26 24 26 27 28 27 24 23 24 25 25 26 27 27 27 29 31 32 30 31 32 34 35 36
32 32 31 30 26 24 26 32 27 23 23 22 23 20 22 25 23 21 22 20 24 33 34 33 30 28 26 26 28 30 29 25 24 25 25 25 26 27 27 28 29 30 34 35 34 35 36 38 38
33 32 32 30 28 26 27 28 26 24 25 25 24 23 25 28 25 24 25 24 24 29 36 33 31 28 28 29 30 30 31 27 26 26 26 27 28 29 29 30 30 32 35 36 35 34 39 39 38
35 34 33 31 32 31 30 29 27 26 24 26 27 26 26 27 26 25 25 25 29 30 35 41 34 29 30 31 32 33 34 31 28 28 28 30 31 30 31 32 30 31 31 32 33 35 35 37 37
35 36 36 35 34 34 30 30 29 27 26 27 27 28 27 27 27 25 25 26 34 37 36 43 46 37 33 34 34 35 37 35 31 31 31 30 32 34 34 34 33 32 31 31 34 34 35 36 36
24 26 34 38 37 35 33 33 32 32 29 29 28 28 29 27 26 25 26 27 28 32 44 42 44 45 44 43 40 39 40 37 33 32 33 33 33 37 38 38 36 34 33 35 34 31 34 36 38
23 21 22 25 34 36 34 33 35 35 35 35 32 30 29 30 28 28 28 28 29 31 43 55 48 49 45 48 52 49 44 43 37 35 35 35 35 37 40 45 40 38 36 34 35 34 34 35 39
24 23 23 21 20 23 25 24 29 31 35 35 35 35 33 32 32 32 31 30 30 31 36 48 80 50 55 54 54 58 53 49 44 41 38 37 37 38 40 43 46 42 39 34 34 37 40 40 40
25 25 24 23 22 21 22 20 22 24 26 27 29 31 31 32 34 35 36 37 36 37 35 34 46 73 75 65 66 65 62 55 53 50 48 43 42 41 44 45 48 48 49 45 38 36 38 43 44
25 23 22 23 24 24 26 21 19 18 21 23 26 26 30 32 34 33 34 36 39 37 39 40 41 48 78 83 74 79 68 61 60 54 52 48 46 45 47 49 51 52 54 52 47 42 47 42 43
31 29 27 22 24 24 27 20 21 22 21 21 22 25 28 29 30 31 32 33 35 37 39 38 36 40 55 61 74 71 72 67 60 61 56 49 45 48 50 51 51 51 56 54 52 49 46 46 46
32 31 31 23 26 29 30 24 27 27 25 23 24 25 29 31 31 33 32 34 36 41 41 42 40 38 35 44 56 65 66 69 69 62 62 58 55 55 58 52 51 51 52 57 50 52 49 50 50
35 33 27 27 29 43 43 31 30 29 30 27 26 26 28 34 36 35 37 39 41 43 42 43 40 39 37 36 36 46 57 65 74 74 72 68 64 64 66 61 54 55 54 51 54 54 55 53 50
38 37 35 28 26 40 44 39 33 35 34 30 28 28 28 33 42 42 45 45 45 44 44 42 41 40 38 37 37 39 38 54 65 72 77 84 78 69 67 68 63 54 55 52 57 57 59 58 55
40 41 40 40 34 37 36 41 30 33 31 28 30 33 32 37 45 46 47 46 44 41 40 38 37 38 39 40 39 37 37 37 45 54 64 66 69 79 73 70 67 62 57 54 54 59 59 59 61
39 44 42 41 36 38 43 44 38 34 33 32 33 36 44 47 49 53 54 48 40 41 37 35 34 33 32 32 34 38 37 34 33 43 49 56 68 74 70 79 72 76 64 62 53 58 58 60 62
52 46 56 54 53 58 46 53 47 34 30 34 33 45 49 51 56 58 54 44 40 37 34 32 31 31 30 27 26 26 27 29 32 34 38 49 58 54 54 69 63 63 55 63 63 59 56 62 67
62 62 66 57 60 64 56 56 44 38 36 41 45 55 55 53 60 55 48 41 39 36 33 32 31 29 28 26 25 25 23 23 22 22 25 27 38 47 53 46 48 60 53 50 54 63 62 58 62
54 47 55 64 63 70 43 53 48 40 43 41 66 65 59 56 55 47 45 40 37 37 35 34 32 30 28 26 26 26 26 24 23 22 21 22 23 33 41 53 51 49 49 55 55 53 58 61 59
57 59 66 84 74 60 51 53 43 72 63 70 74 80 65 64 46 40 37 36 35 35 34 33 33 32 32 30 29 28 28 28 27 26 24 23 23 26 34 47 65 43 39 43 53 51 53 58 61
65 67 85 83 76 64 80 69 69 78 85 86 84 78 74 62 55 46 40 36 33 31 31 30 28 27 28 29 30 31 31 32 31 31 30 26 23 24 28 44 41 95 43 42 49 61 54 53 62
61 64 68 79 74 72 63 72 90 85 84 82 82 83 77 70 63 54 44 36 33 30 28 27 26 26 28 33 34 34 35 37 38 39 38 36 30 24 29 39 48 43 55 45 43 46 57 59 61
55 58 70 90 94 73 56 54 84 84 85 85 82 77 72 68 59 44 33 30 29 30 28 28 31 34 36 39 40 41 43 44 46 49 52 53 45 38 33 36 48 46 46 51 43 45 58 67 68
66 60 57 62 67 87 67 59 76 84 88 86 81 77 70 61 49 30 21 22 23 25 31 34 37 38 41 44 45 47 51 56 59 68 73 71 65 53 40 38 46 50 56 55 51 48 60 71 72
58 61 64 66 63 66 65 62 70 75 78 70 62 58 56 45 37 30 23 25 27 32 38 39 40 42 45 48 51 56 66 74 77 80 84 78 71 62 47 45 51 55 65 65 59 53 65 70 79

GFSSGP_prec_cthk_117.txt.gz
RH
20 20 20 20 20 19 20 19 20 16 15 15 15 14 13 12 14 34 37 32 31 31 30 27 19 15 17 19 21 22 23 22 20 20 21 24 28 28 24 21 18 19 21 23 25 27 29 31 31
22 23 24 22 22 23 24 18 17 19 16 16 15 14 13 14 17 22 23 28 33 34 29 26 21 18 18 20 21 22 23 22 20 21 21 24 27 28 23 21 19 19 21 23 26 28 29 30 31
24 24 25 24 24 23 23 23 22 23 21 19 17 16 17 18 17 19 20 22 25 24 26 25 22 20 20 21 22 23 24 23 20 20 21 23 25 25 23 22 20 19 21 22 25 27 26 27 29
26 26 24 26 25 21 20 23 24 24 24 22 21 18 17 17 16 17 17 17 22 20 24 28 25 22 22 23 23 24 24 24 21 19 20 22 24 24 23 22 22 22 22 24 25 26 26 27 29
29 28 28 26 24 21 22 26 30 27 22 20 19 19 19 19 18 18 17 17 20 24 27 29 26 24 24 23 23 25 24 23 21 20 21 22 24 24 23 23 22 23 24 25 27 28 28 29 30
32 30 31 29 25 24 25 28 29 31 26 24 24 21 20 22 20 20 20 19 20 23 27 31 32 27 26 24 24 25 25 24 22 21 23 23 23 24 24 23 24 24 25 26 28 30 29 30 32
33 34 33 30 27 25 26 29 30 29 27 27 26 25 24 24 25 22 21 23 22 22 28 30 34 32 30 28 25 26 26 26 24 22 23 25 24 25 26 26 25 25 25 26 28 29 32 33 33
35 34 33 31 30 27 26 31 31 29 27 25 25 27 26 26 26 25 24 24 26 21 24 28 33 35 32 31 29 28 28 29 26 23 25 26 27 27 28 29 28 28 27 29 30 30 29 32 34
35 35 36 36 35 31 30 28 28 26 26 25 26 27 28 27 28 27 25 24 26 29 29 28 30 36 35 32 31 30 30 32 30 27 26 27 27 28 28 29 31 30 30 30 30 29 31 31 32
25 25 22 27 35 35 34 32 29 29 27 27 28 28 29 30 30 28 27 27 27 29 34 32 31 37 35 33 33 34 34 33 33 31 28 27 28 29 29 30 32 33 32 30 30 31 30 31 31
21 20 21 20 23 26 29 34 34 35 34 33 31 29 28 28 29 30 30 29 27 27 31 34 36 39 40 36 36 37 38 38 39 36 33 30 29 30 31 32 33 34 34 32 32 31 30 30 32
21 20 21 20 20 20 21 21 21 26 31 34 36 35 34 32 32 31 30 33 32 31 31 36 42 48 43 47 41 43 46 47 43 41 38 35 32 31 32 32 33 34 33 35 32 32 32 31 31
22 22 22 22 21 20 19 18 18 19 19 20 25 28 29 30 31 32 34 33 34 33 34 41 45 46 56 58 58 50 50 52 50 48 45 40 36 33 33 33 35 35 35 37 37 35 33 32 32
24 24 23 23 22 22 22 18 21 19 20 19 19 20 19 20 22 26 29 31 34 34 38 49 52 52 56 77 71 73 66 59 60 58 55 49 44 39 37 38 37 38 39 40 43 39 38 36 33
27 25 23 22 23 25 28 18 20 21 22 20 19 20 20 20 22 24 27 28 29 32 34 36 42 48 56 66 89 74 90 85 81 78 71 59 49 45 44 44 43 40 42 44 48 49 47 43 41
32 30 28 24 25 24 34 20 23 26 25 23 22 21 20 21 22 23 24 25 27 29 32 34 37 39 42 51 57 60 64 90 92 94 75 72 60 52 47 48 48 49 47 48 51 53 50 48 45
33 32 28 23 27 29 42 28 27 30 32 29 27 26 26 28 26 26 24 25 27 28 30 34 36 36 37 40 52 58 67 79 86 91 85 82 69 59 52 52 51 54 54 49 50 54 54 51 48
30 31 27 24 26 32 30 32 33 33 35 34 30 30 30 33 36 30 28 27 28 29 33 33 32 31 35 36 36 45 49 50 60 74 87 86 85 70 62 56 56 61 64 57 52 54 55 52 53
30 32 32 28 27 38 33 27 34 37 39 38 37 35 33 43 43 38 34 33 31 31 35 36 34 33 34 35 33 33 37 45 48 51 62 71 81 87 71 64 66 68 73 64 62 58 60 55 56
36 36 32 28 25 31 29 30 28 33 40 43 42 43 41 50 54 52 40 40 39 36 40 37 37 35 35 35 37 37 34 32 34 37 46 56 70 77 88 85 76 75 77 85 75 67 65 64 57
43 46 44 42 39 38 38 36 28 28 28 27 32 33 36 53 58 57 46 43 43 41 45 40 36 34 33 31 31 31 32 34 33 32 37 44 47 52 65 73 71 82 89 89 91 80 72 68 63
42 47 57 57 61 61 45 61 46 37 33 33 40 51 55 67 70 61 50 47 47 50 45 38 33 34 32 29 28 27 27 27 28 29 30 31 40 44 50 55 63 70 69 89 87 84 86 81 73
50 58 56 55 61 71 52 68 41 36 39 48 65 71 76 70 77 68 62 58 56 51 46 32 31 30 29 28 27 26 24 23 21 21 22 25 27 33 44 47 50 51 62 62 76 89 85 77 75
60 66 60 61 62 70 41 65 41 42 50 68 72 82 79 80 75 70 69 65 61 53 43 29 29 29 27 27 26 26 26 25 23 21 19 18 18 19 23 37 43 46 46 59 61 66 77 73 64
68 70 76 74 73 59 54 57 45 62 71 80 70 75 84 82 77 76 70 62 55 45 29 28 26 24 24 24 24 24 24 25 26 25 23 21 19 17 16 20 27 38 44 44 65 75 73 72 69
72 69 83 82 77 69 61 65 82 90 83 87 88 79 76 78 76 72 65 49 41 38 34 28 27 27 27 26 23 23 24 25 26 26 26 24 23 21 18 17 19 23 37 36 42 82 82 71 58
63 70 68 72 71 78 60 62 82 83 96 91 95 95 94 90 90 78 58 50 45 39 31 26 24 24 23 23 24 24 25 27 28 28 28 27 26 24 24 23 20 19 27 40 38 48 79 81 57
64 64 77 89 92 84 66 63 94 98 96 95 91 88 84 82 74 69 65 59 51 41 31 28 28 26 26 26 28 29 30 32 34 35 35 36 36 36 35 34 32 27 23 36 44 36 44 64 64
65 66 67 76 84 91 84 71 74 84 90 82 82 73 65 60 61 60 57 53 43 35 29 26 26 30 30 31 35 39 39 39 41 42 42 45 46 47 50 52 52 46 34 28 41 41 41 62 66
65 65 70 81 68 70 73 67 67 75 87 77 69 62 60 61 62 58 54 45 35 26 25 26 29 33 36 37 40 43 45 48 49 52 54 59 65 70 72 70 68 63 56 35 40 38 46 59 70

GFSSGP_prec_cthk_123.txt.gz
RH
18 18 19 20 20 21 21 20 19 18 17 14 14 14 15 16 19 21 27 28 28 29 30 30 27 27 26 25 21 19 19 21 21 21 21 22 24 23 21 18 17 19 20 21 23 24 26 28 29
19 20 21 21 23 25 23 22 21 19 17 16 16 17 20 25 24 26 27 27 29 30 32 32 31 30 26 24 21 21 21 22 22 22 23 22 24 25 22 19 17 18 19 21 23 24 25 27 28
22 22 22 23 27 26 23 23 24 22 18 16 18 18 22 26 27 26 24 24 23 23 25 30 32 31 28 24 22 22 24 23 23 24 23 23 24 25 24 20 18 18 20 22 23 24 27 29 29
25 24 23 25 26 26 24 26 25 25 21 20 19 21 24 24 26 26 25 20 18 18 20 24 27 29 28 23 23 23 25 25 24 25 24 23 24 26 25 22 20 19 20 21 23 25 27 28 29
28 27 27 26 27 26 26 27 27 22 22 22 21 22 25 25 26 26 23 20 20 21 22 24 28 28 28 26 25 24 25 25 25 25 26 26 25 27 26 24 22 20 20 21 23 25 26 26 28
30 30 32 30 28 27 28 30 28 27 26 25 24 25 26 27 28 27 26 23 22 23 24 25 27 33 34 32 30 27 26 26 26 27 27 27 26 27 27 25 24 24 22 22 22 24 26 26 28
33 32 34 32 31 29 29 29 29 29 28 27 26 26 26 27 27 27 26 25 24 25 26 27 28 27 33 36 34 31 29 29 28 28 27 27 27 27 27 27 26 25 25 23 24 25 27 27 31
35 35 34 34 33 31 30 30 29 29 29 28 28 29 29 31 31 30 27 26 25 26 29 30 32 29 30 35 37 36 33 33 31 29 27 27 27 28 28 28 28 28 27 27 27 27 28 30 31
35 32 29 31 35 33 32 32 30 30 29 28 28 29 30 31 30 30 28 28 27 28 30 33 35 36 33 34 41 41 38 36 35 33 30 30 30 29 28 29 30 31 32 30 30 29 30 30 31
18 21 21 20 20 19 24 29 31 31 31 30 30 31 31 31 32 32 31 31 31 30 31 32 35 34 40 37 38 44 45 40 37 36 35 34 35 34 32 30 31 32 32 34 34 33 32 31 32
16 16 17 16 15 16 16 17 20 22 23 25 29 31 33 30 30 31 30 29 31 32 34 32 30 32 35 43 44 43 47 46 44 41 38 36 37 38 36 34 34 34 34 35 37 35 35 34 33
16 17 18 17 17 17 17 16 17 19 16 18 21 22 23 26 26 24 23 23 23 25 29 33 33 33 38 46 51 53 49 52 50 48 45 41 40 40 38 38 37 39 37 37 38 39 38 38 37
22 20 19 19 18 18 18 18 19 16 16 19 19 19 19 18 18 19 19 18 18 19 21 24 24 26 37 47 51 59 62 60 64 64 58 50 47 45 42 41 40 39 42 40 39 41 42 42 42
23 25 24 23 20 21 20 20 20 17 19 20 20 19 19 19 19 19 19 17 17 17 16 17 20 23 28 37 47 60 68 70 78 80 72 66 59 56 52 49 47 43 43 44 45 43 45 46 46
27 26 26 25 25 23 22 21 20 21 22 21 21 21 21 21 20 20 19 18 17 17 18 19 22 25 28 31 37 49 67 83 85 88 85 81 77 71 69 66 59 53 48 48 48 48 49 50 53
32 33 33 26 24 21 23 26 24 22 22 22 22 22 21 20 20 18 18 18 19 19 20 23 27 30 31 31 35 41 46 56 62 76 93 90 91 85 86 80 80 73 70 63 59 57 55 56 59
34 37 32 29 25 26 27 26 26 24 22 20 20 21 22 22 22 19 20 22 22 23 24 28 29 32 33 34 35 37 39 41 45 47 59 67 89 88 81 87 81 78 78 79 73 66 65 63 65
34 35 34 34 29 31 30 26 24 22 21 19 18 20 26 28 31 34 35 34 33 30 29 29 30 28 28 29 30 32 34 36 37 40 45 50 57 70 77 82 83 86 81 92 83 76 73 69 70
35 36 37 36 33 34 31 27 28 27 27 23 21 23 27 36 40 42 44 45 44 42 39 38 38 35 32 31 30 29 32 34 34 36 39 45 52 51 54 60 74 90 97 93 87 86 80 77 83
35 36 39 38 36 37 34 28 26 27 27 31 29 29 31 34 45 51 52 55 55 54 50 48 48 42 36 34 34 35 35 35 35 32 32 35 37 45 52 58 62 71 90 91 85 93 81 84 83
36 41 38 44 42 41 39 32 27 25 32 35 35 36 43 45 46 56 62 68 68 70 61 58 56 54 45 39 38 39 40 39 35 29 28 30 34 38 39 44 56 60 67 90 97 87 93 92 91
45 38 41 47 54 54 46 50 31 34 45 45 48 49 50 53 55 57 61 64 72 73 74 67 65 59 54 46 44 48 45 39 35 26 26 25 27 32 34 35 36 40 47 50 58 69 84 95 82
49 46 48 48 52 49 48 65 36 51 55 54 54 57 61 62 62 65 67 67 65 67 66 69 62 60 59 56 53 50 47 43 36 30 22 21 21 22 26 29 30 32 35 41 48 54 61 66 67
44 48 51 53 59 73 45 68 53 63 64 59 63 65 67 74 74 74 77 80 77 72 67 63 59 59 57 52 47 48 40 36 34 26 21 21 19 18 18 20 22 24 26 29 32 38 45 51 59
51 60 76 79 73 70 55 61 63 65 67 70 73 73 75 82 84 83 79 80 77 76 73 69 64 59 51 48 47 43 36 32 25 23 22 20 19 19 17 16 18 19 19 20 21 23 28 37 50
57 63 82 85 82 70 60 61 60 67 70 71 73 77 85 90 98 97 97 94 90 82 76 79 70 61 57 50 48 40 35 32 28 27 27 26 25 23 21 20 20 19 20 20 20 19 19 21 28
58 67 67 82 78 81 61 67 69 74 73 72 74 77 83 88 92 90 90 86 88 80 81 82 77 68 60 54 46 43 43 38 30 29 28 28 29 29 28 26 26 26 24 23 22 20 20 20 20
56 64 73 86 93 88 66 65 71 74 76 77 77 75 72 74 77 77 74 68 69 69 64 58 61 58 66 64 58 53 44 37 34 31 30 33 33 34 34 33 32 33 35 34 31 27 26 25 24
65 65 69 81 86 89 83 65 67 72 70 75 75 75 73 69 70 70 69 67 64 59 57 56 53 48 45 43 43 45 38 36 36 39 39 38 38 37 37 37 36 35 35 37 38 37 35 33 31
64 62 70 84 79 85 84 64 68 71 74 79 78 74 68 70 71 71 68 62 57 55 50 46 44 40 42 43 43 44 42 41 45 40 38 40 42 43 43 43 41 41 40 40 40 39 38 37 36

GFSSGP_prec_cthk_129.txt.gz
RH
17 17 18 18 18 18 19 20 19 19 18 15 16 15 19 22 25 24 29 31 34 33 35 35 33 32 29 28 29 28 29 27 25 25 25 24 22 21 18 17 16 16 18 19 22 24 26 27 29
19 18 19 19 20 20 20 21 20 19 18 17 17 16 18 21 22 27 32 33 36 37 38 36 37 37 35 32 29 29 29 29 28 27 27 26 26 24 21 18 17 17 17 18 19 21 24 24 27
21 20 20 21 22 21 22 22 22 20 18 16 16 19 20 23 29 31 30 30 29 31 31 33 33 33 36 37 36 33 31 30 29 29 29 27 27 27 24 20 19 18 18 18 19 20 22 24 26
23 22 22 22 24 25 25 24 24 23 21 19 18 20 23 24 27 28 27 25 25 26 28 29 29 29 31 35 39 38 35 32 31 30 29 30 29 29 28 24 21 20 20 20 20 20 22 24 25
23 24 24 25 26 27 26 25 25 25 25 23 22 22 24 28 29 27 26 26 27 30 32 32 32 32 32 32 37 40 38 35 32 32 32 32 32 32 31 28 25 22 21 22 22 22 23 24 24
25 25 25 27 29 29 28 28 26 26 26 26 25 26 27 30 31 29 28 28 29 30 32 33 34 34 34 36 36 38 38 36 34 33 33 33 33 34 34 33 29 26 24 24 24 24 25 25 25
26 26 26 29 31 32 31 29 29 29 28 27 26 27 27 28 30 30 29 28 28 29 30 32 34 35 38 39 41 40 41 41 39 35 34 35 36 36 38 38 36 32 29 27 26 26 27 26 27
25 26 29 31 32 34 33 31 31 31 30 30 30 30 30 30 31 31 30 30 30 29 29 31 33 36 37 39 41 42 44 48 48 43 38 38 39 39 40 41 41 38 34 33 31 30 30 30 30
19 22 32 34 36 36 35 35 36 36 34 34 34 33 32 31 31 30 28 27 28 29 31 32 34 37 40 40 41 42 44 48 52 52 47 45 43 43 42 43 43 44 40 38 37 36 35 35 35
14 17 19 23 22 21 23 25 27 29 30 32 30 28 27 26 24 22 22 22 23 26 29 32 34 37 41 40 41 41 42 46 50 54 54 52 49 47 46 45 46 46 46 46 45 45 46 41 39
14 13 13 15 16 17 18 18 18 17 17 19 21 23 24 22 21 19 19 20 20 20 23 24 27 31 32 36 41 44 46 47 52 55 57 58 56 53 51 48 48 49 50 49 50 52 53 48 41
15 14 15 16 17 18 19 19 19 18 19 18 18 18 18 19 20 20 20 20 19 19 19 19 20 19 20 21 27 37 43 47 57 61 63 63 66 66 63 58 55 55 55 56 52 50 52 53 50
17 17 17 18 20 20 21 21 21 21 20 20 20 19 18 18 19 18 18 18 17 17 17 18 19 20 19 18 20 24 31 38 46 53 61 70 70 72 73 74 71 65 66 66 60 57 57 59 55
18 18 18 19 20 22 22 22 23 23 23 23 23 23 23 23 23 22 22 21 20 20 20 20 20 20 20 19 22 28 31 33 39 47 54 65 72 72 74 75 74 75 76 74 74 70 67 65 62
22 21 21 20 20 21 21 21 23 23 24 24 24 24 25 27 27 26 27 28 27 27 26 25 24 23 21 25 28 30 34 35 40 47 55 63 70 77 79 77 91 82 78 76 81 80 84 78 67
26 26 25 24 23 24 21 21 21 22 23 22 24 25 27 29 30 31 32 36 35 33 32 29 27 27 27 27 30 32 33 35 39 45 53 59 59 65 66 59 74 76 71 86 92 91 85 80 79
32 29 30 27 25 28 29 30 27 26 26 24 24 26 28 30 33 34 34 33 32 32 34 34 33 34 35 36 35 37 37 37 38 43 47 47 49 52 50 49 49 50 51 70 82 88 88 90 83
33 36 35 34 30 29 30 31 31 29 28 27 27 29 29 30 31 32 33 34 34 35 37 38 38 40 42 44 44 42 42 41 41 42 41 40 39 39 40 40 39 37 39 49 65 78 72 93 96
38 39 38 35 31 33 33 34 33 30 31 31 31 32 33 33 33 33 33 33 34 35 38 40 42 45 45 46 47 48 43 42 40 38 38 37 36 37 37 37 37 35 36 43 53 66 64 72 78
41 40 37 35 35 37 37 36 31 32 34 35 36 36 37 36 36 37 37 37 39 39 39 39 43 45 47 48 49 50 50 46 45 44 42 41 40 38 36 36 36 36 34 33 44 49 54 55 64
40 41 38 38 38 37 38 34 38 42 38 39 40 41 41 41 41 40 40 41 42 43 44 44 44 47 52 54 54 52 50 52 51 49 50 49 45 41 39 38 37 37 36 31 31 38 45 48 49
41 33 37 40 44 46 41 42 37 42 44 44 46 46 45 45 43 43 44 45 48 51 51 51 51 50 49 50 51 50 51 52 57 56 55 55 50 44 39 38 38 36 35 30 29 32 35 38 39
37 39 42 44 48 48 44 44 39 46 46 47 46 46 48 48 46 47 50 49 49 51 54 54 55 56 52 51 52 53 52 51 52 55 55 53 51 48 47 45 39 35 30 23 24 29 32 34 37
44 45 48 48 48 54 43 41 42 50 44 46 46 49 52 50 51 51 53 58 59 60 61 60 58 59 61 64 63 62 63 63 61 61 58 53 49 47 48 48 44 33 23 22 23 25 25 27 28
46 54 59 58 61 51 45 51 39 42 46 43 46 51 53 55 57 56 59 59 52 49 51 52 54 53 55 66 76 69 68 69 64 63 62 56 53 52 54 50 45 39 30 27 25 24 25 26 27
52 55 59 66 65 54 52 50 37 46 47 48 51 56 60 61 61 60 59 56 48 47 48 54 58 54 49 47 52 53 50 50 57 61 58 59 57 54 55 50 47 43 39 36 31 30 29 26 28
57 59 58 69 70 72 57 46 45 50 52 54 55 60 64 67 67 65 61 55 52 50 49 47 51 51 49 49 51 50 48 45 44 42 53 56 56 56 55 54 52 48 40 33 32 29 28 31 29
54 59 69 79 88 76 54 49 44 51 51 54 59 63 67 73 73 71 67 63 60 56 54 52 48 46 45 47 48 51 48 46 48 48 46 46 53 58 54 51 42 39 39 37 36 34 30 30 34
63 65 68 75 85 91 74 53 52 51 52 55 64 68 73 78 79 76 69 68 67 61 56 51 47 44 42 45 47 46 49 49 50 54 50 49 47 44 44 44 43 44 46 46 39 38 39 36 36
71 68 71 86 77 86 84 54 56 58 56 60 71 76 80 82 84 82 73 71 72 66 61 55 52 50 47 49 53 53 53 53 52 55 56 56 53 50 49 48 51 51 50 48 47 42 42 43 40

GFSSGP_prec_cthk_132.txt.gz
RH
15 16 16 17 19 16 18 19 18 19 18 16 17 16 21 24 34 45 33 34 35 35 32 37 36 34 33 30 28 27 27 27 28 26 25 25 26 24 19 17 17 17 18 19 20 23 25 26 25
17 16 18 18 18 19 22 19 20 18 18 16 16 16 21 27 25 33 37 33 36 37 39 39 38 39 39 38 34 30 29 29 29 29 29 29 29 28 25 20 18 18 18 18 20 22 24 25 25
19 18 19 20 19 20 23 21 20 19 17 17 17 19 21 27 33 36 36 33 32 32 33 33 35 37 37 38 38 37 34 31 31 31 31 31 31 31 29 26 22 20 19 19 20 21 23 24 24
20 20 19 20 22 22 23 23 23 22 20 19 18 21 25 30 33 34 34 30 28 28 30 32 33 33 34 34 36 37 38 37 35 33 33 32 32 32 33 31 26 23 22 22 23 23 23 23 23
21 20 21 21 23 24 24 24 24 24 23 22 21 23 28 30 30 31 31 27 27 29 31 34 36 37 37 39 38 39 40 41 40 36 34 34 35 35 35 36 33 28 25 25 25 25 25 25 25
21 21 22 24 25 25 26 27 26 26 26 26 25 26 26 29 30 30 32 30 31 31 30 33 34 36 38 39 40 41 42 42 43 41 38 36 37 38 37 38 38 34 30 27 28 29 29 29 28
21 21 24 25 26 27 27 28 28 28 27 27 27 29 29 28 30 31 33 30 30 30 31 33 36 36 37 40 41 43 44 46 47 46 44 42 40 40 40 40 41 40 36 33 31 32 32 32 31
20 22 24 26 27 29 28 30 31 30 29 30 29 29 30 29 30 30 32 32 31 30 30 32 34 37 40 42 42 43 45 47 48 50 50 48 45 43 42 43 43 44 43 43 39 35 35 34 34
18 19 23 28 30 29 31 33 35 34 33 33 32 32 31 31 31 31 30 31 33 33 31 32 34 37 39 42 43 42 42 44 46 51 54 55 52 49 46 44 45 46 50 48 47 44 42 40 37
15 17 22 19 24 26 26 25 29 31 31 33 32 29 26 24 23 22 22 23 25 26 31 30 31 35 39 44 43 43 44 44 46 49 54 60 59 59 57 52 48 49 54 58 54 53 51 48 47
15 15 16 15 16 16 16 16 15 17 18 20 21 21 21 21 21 20 20 20 21 21 21 23 27 25 32 41 41 41 43 45 48 51 57 61 62 64 62 60 56 52 54 58 55 56 55 55 56
15 15 15 14 15 15 16 16 16 17 18 17 17 17 18 19 20 21 21 21 21 22 21 19 19 20 23 25 28 30 27 31 39 48 56 60 62 63 66 67 68 66 62 61 64 68 64 63 60
17 16 17 17 17 17 17 18 18 19 19 18 19 19 21 22 22 23 23 23 22 21 20 18 17 19 21 22 23 22 24 27 33 37 47 54 59 66 73 68 72 73 69 70 73 72 73 70 67
19 18 18 18 17 18 18 20 19 20 20 21 21 24 24 25 25 25 23 22 23 23 24 23 23 22 21 22 22 27 29 31 33 37 38 41 53 59 68 74 76 76 72 71 73 76 81 76 76
23 19 17 20 18 19 18 19 19 22 20 21 23 27 26 27 27 27 27 28 28 29 29 29 28 31 29 27 29 31 31 31 34 37 37 44 50 55 66 83 87 85 82 74 77 85 81 76 77
24 22 18 23 21 21 20 18 23 25 25 25 25 28 29 28 28 28 28 28 28 30 32 33 33 34 33 31 31 30 30 38 35 37 40 43 46 54 62 68 77 78 79 83 80 94 78 72 75
31 22 28 25 23 24 22 20 23 25 26 29 28 33 33 32 32 31 31 31 29 28 27 30 33 34 37 38 40 41 41 41 40 39 39 41 46 51 54 56 60 56 58 60 61 68 75 67 68
26 30 31 30 28 28 27 26 25 29 29 28 30 33 34 33 32 35 36 35 34 34 33 32 30 32 36 40 43 46 47 46 46 45 45 45 45 43 43 45 43 44 48 51 51 46 50 51 59
34 33 33 33 33 32 29 29 30 32 31 30 34 33 35 34 34 35 36 36 38 38 38 38 38 37 37 38 41 45 45 47 48 45 43 41 39 37 37 38 39 38 39 41 42 43 46 53 57
37 36 34 32 32 34 32 33 32 33 32 33 34 35 36 36 35 36 38 39 39 39 38 38 38 38 38 38 40 44 45 47 49 49 46 44 44 42 40 39 39 38 38 38 40 41 42 45 52
34 34 32 34 33 31 34 30 35 35 34 35 36 37 38 38 39 41 42 42 38 37 39 40 40 40 40 40 40 40 44 46 49 48 49 47 46 48 49 46 43 42 40 39 39 40 42 42 40
35 35 32 33 37 37 42 28 31 38 34 34 37 39 39 41 42 41 41 42 42 40 39 39 41 41 41 41 41 43 45 48 47 46 45 46 47 51 57 56 55 50 44 42 42 44 40 35 34
34 35 36 39 42 39 40 43 31 36 35 37 37 40 41 43 42 43 43 45 47 45 46 46 44 42 42 44 47 49 49 49 50 51 50 50 49 49 53 54 56 54 49 46 44 42 39 37 30
40 41 44 44 41 39 36 40 26 41 39 39 38 40 42 45 47 48 47 47 48 41 36 33 33 35 34 35 38 44 51 54 60 62 59 59 58 58 54 52 51 50 50 46 43 44 39 30 25
43 48 44 44 52 40 44 42 33 45 38 38 42 42 45 48 52 52 51 51 47 39 39 38 38 38 39 41 43 46 45 46 49 60 57 59 66 67 66 62 56 48 48 48 48 47 39 34 31
49 48 51 52 43 44 54 45 39 40 39 41 44 47 48 52 56 55 55 54 47 44 44 43 44 43 40 41 44 48 50 50 49 54 56 53 49 50 59 63 62 62 58 54 53 53 51 43 39
62 56 53 59 55 59 46 40 50 50 46 47 47 50 53 57 61 60 57 54 51 52 51 51 51 48 46 44 43 42 46 50 50 55 53 51 51 50 52 51 62 61 61 58 57 56 54 51 48
46 55 59 64 69 61 45 46 49 57 57 56 54 55 59 62 64 64 62 59 58 59 60 58 54 52 49 45 43 42 42 48 50 48 49 49 51 53 50 48 50 52 59 60 58 53 46 41 39
60 53 59 60 63 71 63 45 56 56 58 57 59 63 65 68 70 71 68 67 67 66 68 63 59 56 53 48 46 46 47 49 51 52 52 54 53 55 57 55 54 52 50 47 46 43 42 42 40
52 47 59 81 70 83 79 51 57 52 55 59 64 64 69 74 74 73 74 79 73 75 74 70 65 60 55 53 52 54 55 58 59 60 60 60 60 59 59 59 57 56 54 51 49 47 47 46 48